Location: Huberhof
(49.2050°N, 7.4980°E)
Time: 01:28:52
(UTC+00:00)

Cosmos 2058 Rocket - Pass Details

Date: 29 October 2020
Orbit: 610 x 639 km, 82.5° (Epoch: 26 November)

Event Time Altitude Azimuth Distance (km) Brightness Sun altitude
Rises 16:40:38 0° 161° (SSE) 2,921 6.5 -5.1°
Reaches altitude 10° 16:43:02 10° 151° (SSE) 2,021 5.6 -5.5°
Maximum altitude 16:46:59 31° 90° (E) 1,124 3.9 -6.1°
Drops below altitude 10° 16:50:58 10° 28° (NNE) 2,043 5.3 -6.7°
Sets 16:53:24 0° 19° (NNE) 2,957 6.2 -7.1°
